Location: Treviso
(45.6669°N, 12.2430°E)
Time: 08:42:23
(UTC+01:00)

ISS - Visible Passes

Search period start: 24 January 2018 00:00
Search period end: 03 February 2018 00:00
Orbit: 402 x 407 km, 51.6° (Epoch: 24 January)

Date Brightness Start Highest point End Pass type
(mag) Time Alt. Az. Time Alt. Az. Time Alt. Az.
24 Jan -1.4 19:02:37 10° S 19:03:26 14° S 19:03:26 14° S visible
25 Jan -1.5 18:11:52 10° SSE 18:13:01 11° SE 18:13:40 11° ESE visible
25 Jan -0.9 19:45:44 10° SW 19:46:21 15° SW 19:46:21 15° SW visible
26 Jan -3.2 18:53:38 10° SW 18:56:29 41° SSE 18:56:29 41° SSE visible
27 Jan -2.4 18:01:50 10° SSW 18:04:32 24° SE 18:06:32 14° E visible
27 Jan -1.6 19:37:35 10° WSW 19:39:12 26° W 19:39:12 26° W visible
28 Jan -4.0 18:45:11 10° WSW 18:48:27 89° SE 18:49:10 51° ENE visible
29 Jan -3.4 17:52:57 10° SW 17:56:07 52° SE 17:59:04 12° ENE visible
29 Jan -2.0 19:29:37 10° W 19:31:44 29° NW 19:31:44 29° NW visible
30 Jan -3.3 18:37:02 10° W 18:40:13 51° NNW 18:41:34 29° NE visible
31 Jan -3.8 17:44:32 10° WSW 17:47:47 78° NNW 17:51:04 10° ENE visible
31 Jan -2.1 19:21:41 10° WNW 19:24:01 27° NNW 19:24:01 27° NNW visible
01 Feb -2.7 18:29:01 10° W 18:32:03 34° NNW 18:33:46 20° NE visible
01 Feb -0.5 20:06:10 10° NW 20:06:25 11° NW 20:06:25 11° NW visible
02 Feb -2.2 19:13:38 10° WNW 19:16:09 26° NNW 19:16:09 26° NNW visible
